�N����,����,�~����,�C��,���x,�C��,����,���ϕ���,�ő�u�ԕ���,�ő厞����,���˗�,�I�_���x,�n�����x,�ő啗���N��,DTYPE
"20/10/07","00:10",0.0,12.2,91.3,1015.6,308.2,0.5,1.7,319.7,0.00,10.9,18.2,"00:00:40",1
"20/10/07","00:20",0.0,11.8,91.4,1016.1,291.7,0.5,1.2,308.6,0.00,10.5,18.1,"00:17:42",1
"20/10/07","00:30",0.0,11.6,91.6,1016.4,297.0,1.0,1.4,318.5,0.00,10.3,18.1,"00:28:06",1
"20/10/07","00:40",0.0,12.1,91.9,1016.4,321.0,1.5,2.4,333.5,0.00,10.9,18.0,"00:37:58",1
"20/10/07","00:50",0.0,12.4,92.0,1016.1,330.7,1.7,2.2,328.2,0.00,11.2,18.0,"00:40:16",1
"20/10/07","01:00",0.0,12.6,92.0,1016.4,333.0,1.2,2.1,327.6,0.00,11.4,18.0,"00:55:34",1
"20/10/07","01:10",0.0,12.8,92.2,1016.1,305.6,1.6,2.7,334.7,0.00,11.6,17.8,"01:06:12",1
"20/10/07","01:20",0.0,12.9,92.2,1016.6,297.3,1.5,2.6,319.4,0.00,11.7,18.0,"01:13:56",1
"20/10/07","01:30",0.0,12.6,92.1,1016.1,309.0,1.1,1.7,325.2,0.00,11.4,17.9,"01:25:30",1
"20/10/07","01:40",0.0,12.2,92.4,1016.4,307.1,1.2,1.9,322.0,0.00,11.0,17.8,"01:39:38",1
"20/10/07","01:50",0.0,11.9,92.6,1016.1,311.7,1.1,1.8,338.0,0.00,10.8,17.9,"01:40:58",1
"20/10/07","02:00",0.0,11.8,92.8,1016.4,315.4,1.2,2.6,322.3,0.00,10.7,17.8,"01:58:14",1
"20/10/07","02:10",0.0,11.9,92.9,1016.1,313.4,1.6,2.1,335.0,0.00,10.8,18.0,"02:03:20",1
"20/10/07","02:20",0.0,11.9,92.9,1016.1,302.1,1.2,1.8,308.4,0.00,10.8,17.7,"02:10:24",1
"20/10/07","02:30",0.0,11.9,93.2,1016.1,313.3,2.0,2.6,317.9,0.00,10.9,17.6,"02:26:00",1
"20/10/07","02:40",0.0,11.9,93.2,1016.4,311.5,1.3,2.2,322.5,0.00,10.9,17.6,"02:31:46",1
"20/10/07","02:50",0.0,11.9,93.3,1015.9,320.6,1.2,2.1,339.3,0.00,10.9,17.5,"02:41:38",1
"20/10/07","03:00",0.0,11.6,93.5,1016.4,307.5,0.8,1.6,315.5,0.00,10.6,17.7,"02:55:32",1
"20/10/07","03:10",0.0,11.5,93.6,1016.4,318.8,1.5,1.9,333.0,0.00,10.5,17.7,"03:02:12",1
"20/10/07","03:20",0.0,11.4,93.7,1016.6,323.5,1.3,2.1,314.3,0.00,10.5,17.4,"03:10:32",1
"20/10/07","03:30",0.0,11.4,94.0,1016.4,318.0,1.5,2.2,327.5,0.00,10.5,17.3,"03:28:40",1
"20/10/07","03:40",0.0,11.7,94.0,1016.4,319.3,1.3,2.1,341.0,0.00,10.8,17.6,"03:34:40",1
"20/10/07","03:50",0.0,12.0,94.1,1016.6,285.1,1.5,2.8,316.1,0.00,11.1,17.5,"03:41:04",1
"20/10/07","04:00",0.0,12.0,94.1,1016.6,308.6,1.3,2.7,323.4,0.00,11.1,17.4,"03:59:58",1
"20/10/07","04:10",0.0,12.2,94.1,1016.8,303.5,1.1,3.4,330.6,0.00,11.3,17.4,"04:00:08",1
"20/10/07","04:20",0.0,12.2,94.1,1016.6,321.6,1.5,2.2,321.4,0.00,11.3,17.4,"04:16:06",1
"20/10/07","04:30",0.0,12.3,94.1,1016.4,319.9,2.1,3.3,327.4,0.00,11.4,17.2,"04:26:48",1
"20/10/07","04:40",0.0,12.3,93.9,1016.8,297.3,0.8,2.6,309.0,0.00,11.4,17.4,"04:30:18",1
"20/10/07","04:50",0.0,12.1,94.0,1017.1,318.6,1.2,2.5,346.2,0.00,11.2,17.2,"04:45:48",1
"20/10/07","05:00",0.0,12.2,94.0,1017.1,306.1,1.6,2.6,320.7,0.00,11.3,17.4,"04:59:34",1
"20/10/07","05:10",0.0,12.3,93.8,1017.3,315.1,2.0,3.5,332.1,0.00,11.4,17.1,"05:03:04",1
"20/10/07","05:20",0.0,12.2,93.7,1017.1,295.4,1.3,2.1,319.2,0.00,11.3,17.2,"05:18:44",1
"20/10/07","05:30",0.0,12.2,93.7,1017.3,314.1,1.8,2.7,319.8,0.00,11.3,17.2,"05:25:28",1
"20/10/07","05:40",0.0,12.2,93.6,1017.3,287.6,1.3,1.9,302.7,0.00,11.2,17.2,"05:32:18",1
"20/10/07","05:50",0.0,12.1,93.6,1017.5,287.5,1.5,1.9,309.2,0.00,11.1,17.1,"05:41:06",1
"20/10/07","06:00",0.0,12.2,93.6,1017.3,281.1,1.3,1.9,267.1,0.00,11.2,17.2,"05:59:38",1
"20/10/07","06:10",0.0,12.5,93.5,1017.3,294.1,1.6,2.2,310.5,0.00,11.5,17.2,"06:05:20",1
"20/10/07","06:20",0.0,12.6,93.3,1017.5,293.6,1.3,1.8,311.4,0.00,11.6,17.2,"06:13:52",1
"20/10/07","06:30",0.0,12.4,93.3,1017.3,305.9,1.5,2.7,340.8,0.00,11.4,17.2,"06:29:10",1
"20/10/07","06:40",0.0,12.6,93.3,1017.3,284.6,1.5,2.5,336.4,0.00,11.6,17.1,"06:39:26",1
"20/10/07","06:50",0.0,12.9,93.1,1017.8,315.1,1.3,2.5,319.3,0.01,11.9,17.2,"06:40:18",1
"20/10/07","07:00",0.0,13.2,92.9,1017.5,317.8,1.1,2.4,347.9,0.02,12.1,17.2,"06:50:08",1
"20/10/07","07:10",0.0,13.4,92.9,1017.8,277.3,0.3,0.6,293.8,0.03,12.3,17.3,"07:03:44",1
"20/10/07","07:20",0.0,13.8,92.7,1018.0,292.1,0.7,1.8,320.7,0.04,12.7,17.4,"07:18:32",1
"20/10/07","07:30",0.0,14.3,92.6,1017.8,319.0,1.1,1.6,328.7,0.06,13.2,17.4,"07:20:08",1
"20/10/07","07:40",0.0,15.7,92.5,1017.8,317.2,0.7,1.3,304.0,0.16,14.5,17.5,"07:38:16",1
"20/10/07","07:50",0.0,16.3,91.0,1018.0,329.6,1.1,2.6,335.4,0.16,14.9,17.8,"07:45:36",1
"20/10/07","08:00",0.0,16.3,89.4,1017.8,337.2,0.8,1.7,335.6,0.07,14.6,17.7,"07:58:56",1
"20/10/07","08:10",0.0,16.3,87.8,1018.7,311.3,0.6,1.9,336.2,0.06,14.3,18.0,"08:02:40",1
"20/10/07","08:20",0.0,16.4,86.3,1018.7,335.7,0.7,1.7,343.5,0.06,14.1,18.1,"08:18:24",1
"20/10/07","08:30",0.0,17.2,84.9,1019.2,357.1,0.5,1.6,347.7,0.16,14.7,18.2,"08:23:04",1
"20/10/07","08:40",0.0,18.4,81.9,1019.0,348.8,1.0,2.2,334.5,0.32,15.3,18.3,"08:38:56",1
"20/10/07","08:50",0.0,19.7,78.0,1018.5,282.9,0.7,1.7,346.6,0.33,15.8,18.7,"08:43:36",1
"20/10/07","09:00",0.0,20.5,71.2,1018.5,248.9,1.0,2.2,230.9,0.37,15.1,18.8,"08:57:04",1
"20/10/07","09:10",0.0,21.1,67.7,1018.2,168.3,0.7,1.4,189.1,0.28,14.9,19.0,"09:00:16",1
"20/10/07","09:20",0.0,20.9,66.4,1017.8,155.3,0.7,1.7,206.5,0.22,14.4,19.0,"09:14:40",1
"20/10/07","09:30",0.0,20.8,63.6,1017.8,184.4,0.7,2.5,223.4,0.22,13.7,19.3,"09:28:24",1
"20/10/07","09:40",0.0,21.1,62.7,1017.5,0.7,1.0,2.0,101.5,0.25,13.8,19.4,"09:37:28",1
"20/10/07","09:50",0.0,21.6,60.6,1017.3,20.1,1.1,4.0,342.2,0.29,13.7,19.7,"09:48:24",1
"20/10/07","10:00",0.0,21.8,61.0,1017.3,346.3,1.8,3.7,333.9,0.30,14.0,19.8,"09:57:12",1
"20/10/07","10:10",0.0,22.1,59.9,1017.1,334.6,1.8,3.6,308.6,0.36,14.0,20.1,"10:09:44",1
"20/10/07","10:20",0.0,22.6,59.6,1016.8,345.3,2.1,6.2,345.1,0.45,14.4,20.4,"10:16:00",1
"20/10/07","10:30",0.0,22.7,56.9,1016.8,0.8,2.0,5.8,344.4,0.39,13.8,20.4,"10:26:40",1
"20/10/07","10:40",0.0,22.4,56.0,1016.6,21.5,2.1,4.1,24.2,0.32,13.2,20.5,"10:36:24",1
"20/10/07","10:50",0.0,22.9,55.4,1016.6,356.7,1.8,3.9,355.7,0.41,13.5,20.6,"10:45:04",1
"20/10/07","11:00",0.0,23.7,54.3,1016.6,8.4,1.3,2.7,32.6,0.44,14.0,20.8,"10:53:20",1
"20/10/07","11:10",0.0,23.8,51.7,1016.1,21.8,1.6,4.0,18.2,0.52,13.3,21.3,"11:02:00",1
"20/10/07","11:20",0.0,24.9,50.5,1016.1,25.3,1.7,3.7,60.5,0.67,14.0,21.6,"11:13:28",1
"20/10/07","11:30",0.0,24.8,49.1,1015.6,25.0,1.8,4.4,342.7,0.56,13.4,21.7,"11:28:00",1
"20/10/07","11:40",0.0,24.8,48.2,1015.4,15.2,1.7,4.1,338.7,0.56,13.2,22.2,"11:36:40",1
"20/10/07","11:50",0.0,25.3,48.8,1015.2,345.8,1.5,4.4,352.4,0.56,13.8,22.3,"11:44:48",1
"20/10/07","12:00",0.0,24.8,49.0,1015.2,350.1,1.7,4.2,333.0,0.41,13.4,22.4,"11:53:20",1
"20/10/07","12:10",0.0,24.2,51.5,1014.9,352.4,1.6,3.4,327.8,0.22,13.6,22.7,"12:09:20",1
"20/10/07","12:20",0.0,24.4,51.3,1014.9,337.9,2.2,4.0,349.1,0.37,13.7,22.6,"12:16:32",1
"20/10/07","12:30",0.0,24.3,51.3,1014.7,344.8,2.2,5.4,349.5,0.32,13.7,22.6,"12:27:52",1
"20/10/07","12:40",0.0,24.2,50.7,1014.7,343.6,2.1,4.1,345.8,0.29,13.4,22.7,"12:37:52",1
"20/10/07","12:50",0.0,23.6,51.3,1014.5,357.0,2.1,4.8,326.8,0.21,13.0,22.6,"12:40:48",1
"20/10/07","13:00",0.0,23.4,50.9,1014.5,351.4,2.3,5.4,348.0,0.22,12.7,22.4,"12:56:24",1
"20/10/07","13:10",0.0,23.4,51.1,1014.7,347.2,2.6,6.2,353.3,0.22,12.8,22.5,"13:07:20",1
"20/10/07","13:20",0.0,23.0,50.0,1014.7,348.8,3.0,6.8,336.3,0.16,12.1,22.5,"13:13:28",1
"20/10/07","13:30",0.0,22.9,51.5,1014.7,349.0,2.2,4.7,350.1,0.14,12.4,22.2,"13:26:00",1
"20/10/07","13:40",0.0,22.8,52.5,1014.9,354.8,2.3,4.0,345.9,0.14,12.6,22.2,"13:34:56",1
"20/10/07","13:50",0.0,22.4,54.2,1014.9,346.4,2.1,4.5,347.8,0.06,12.7,22.3,"13:46:48",1
"20/10/07","14:00",0.0,22.0,55.2,1014.7,341.6,2.5,5.1,346.5,0.06,12.6,22.2,"13:52:56",1
"20/10/07","14:10",0.0,21.9,55.5,1014.7,344.7,2.3,5.7,340.1,0.08,12.6,22.0,"14:07:44",1
"20/10/07","14:20",0.0,22.3,54.7,1014.9,338.6,2.8,6.7,340.5,0.19,12.8,21.9,"14:10:16",1
"20/10/07","14:30",0.0,22.4,54.8,1014.9,341.5,2.6,5.9,329.4,0.16,12.9,21.7,"14:22:24",1
"20/10/07","14:40",0.0,22.2,55.5,1015.4,342.2,2.6,6.0,349.6,0.13,12.9,22.0,"14:30:48",1
"20/10/07","14:50",0.0,22.2,57.4,1015.6,342.4,2.2,3.9,349.4,0.11,13.4,21.8,"14:40:32",1
"20/10/07","15:00",0.0,21.9,57.1,1015.4,350.3,2.0,5.4,332.1,0.09,13.1,21.9,"14:53:28",1
"20/10/07","15:10",0.0,21.8,58.3,1015.4,348.8,2.2,5.9,339.3,0.08,13.3,21.6,"15:00:40",1
"20/10/07","15:20",0.0,21.5,59.1,1015.4,355.9,2.1,4.9,343.9,0.06,13.2,21.6,"15:19:52",1
"20/10/07","15:30",0.0,21.4,59.9,1015.6,346.7,2.5,7.2,344.7,0.07,13.3,21.5,"15:25:36",1
"20/10/07","15:40",0.0,21.3,60.9,1015.9,345.7,2.0,5.5,352.4,0.04,13.5,21.4,"15:33:36",1
"20/10/07","15:50",0.0,21.0,61.6,1016.1,341.7,2.7,7.0,339.6,0.02,13.4,21.4,"15:41:04",1
"20/10/07","16:00",0.0,21.0,62.4,1016.4,347.1,2.5,5.0,340.3,0.05,13.6,21.4,"15:52:00",1
"20/10/07","16:10",0.0,20.9,63.0,1016.1,351.7,2.2,4.8,10.9,0.02,13.6,21.2,"16:04:48",1
"20/10/07","16:20",0.0,20.7,64.1,1015.9,344.5,2.2,4.9,346.0,0.01,13.7,21.3,"16:12:00",1
"20/10/07","16:30",0.0,20.5,65.0,1015.9,343.7,2.2,4.9,338.4,0.00,13.7,21.2,"16:20:16",1
"20/10/07","16:40",0.0,20.3,65.9,1016.4,341.5,2.1,3.9,338.1,0.00,13.8,21.1,"16:38:16",1
"20/10/07","16:50",0.0,19.8,67.7,1016.1,341.1,2.1,4.7,349.1,0.00,13.7,20.9,"16:40:32",1
"20/10/07","17:00",0.0,19.5,68.6,1016.1,344.6,2.2,3.9,341.2,0.00,13.6,20.9,"16:53:36",1
"20/10/07","17:10",0.0,19.4,69.1,1016.6,339.9,2.3,5.6,336.6,0.00,13.6,21.0,"17:08:08",1
"20/10/07","17:20",0.0,19.4,69.4,1016.8,333.9,2.0,4.1,338.2,0.00,13.7,20.7,"17:14:16",1
"20/10/07","17:30",0.0,19.3,69.9,1016.6,338.1,2.0,3.6,327.5,0.00,13.7,20.9,"17:22:08",1
"20/10/07","17:40",0.0,19.3,70.2,1016.8,342.0,2.0,3.9,339.5,0.00,13.8,20.6,"17:37:52",1
"20/10/07","17:50",0.0,19.2,70.7,1016.6,340.1,1.3,4.3,344.0,0.00,13.8,20.8,"17:41:12",1
"20/10/07","18:00",0.0,19.2,71.4,1017.3,299.9,1.2,3.5,333.3,0.00,13.9,20.6,"17:51:28",1
"20/10/07","18:10",0.0,19.1,72.1,1017.1,308.1,1.2,2.8,340.6,0.00,14.0,20.6,"18:02:08",1
"20/10/07","18:20",0.0,19.0,72.7,1017.1,334.7,1.2,2.4,323.3,0.00,14.0,20.7,"18:17:20",1
"20/10/07","18:30",0.0,19.0,73.4,1017.3,298.3,1.1,2.9,333.2,0.00,14.2,20.7,"18:22:08",1
"20/10/07","18:40",0.0,18.9,74.6,1017.1,284.3,1.2,3.2,325.0,0.00,14.3,20.5,"18:30:24",1
"20/10/07","18:50",0.0,18.5,75.6,1016.8,296.6,0.6,1.6,249.4,0.00,14.2,20.3,"18:40:16",1
"20/10/07","19:00",0.0,18.3,77.5,1017.5,293.4,1.0,1.7,299.8,0.00,14.3,20.5,"18:55:52",1
"20/10/07","19:10",0.0,18.2,78.8,1017.8,280.5,0.5,1.1,314.7,0.00,14.5,20.3,"19:05:04",1
"20/10/07","19:20",0.0,18.3,79.7,1018.0,307.7,1.0,2.2,335.2,0.00,14.8,20.4,"19:18:32",1
"20/10/07","19:30",0.0,18.2,80.8,1018.2,334.8,1.0,1.7,326.1,0.00,14.9,20.5,"19:20:48",1
"20/10/07","19:40",0.0,18.0,81.7,1018.2,298.0,0.6,1.4,310.1,0.00,14.9,20.3,"19:39:44",1
"20/10/07","19:50",0.0,17.8,82.8,1018.2,319.8,1.3,1.9,313.6,0.00,14.9,20.4,"19:41:44",1
"20/10/07","20:00",0.0,17.7,83.7,1017.8,318.0,1.0,1.4,321.0,0.00,14.9,20.3,"19:54:56",1
"20/10/07","20:10",0.0,17.6,84.5,1017.5,317.5,1.2,2.0,341.4,0.00,15.0,20.2,"20:08:40",1
"20/10/07","20:20",0.0,17.3,85.2,1017.5,311.0,0.8,1.3,340.6,0.00,14.8,20.3,"20:13:28",1
"20/10/07","20:30",0.0,17.2,85.9,1017.5,276.1,0.8,1.3,259.4,0.00,14.9,20.2,"20:25:12",1
"20/10/07","20:40",0.0,17.2,86.6,1018.0,279.1,1.0,1.8,289.7,0.00,15.0,20.1,"20:36:00",1
"20/10/07","20:50",0.0,17.2,87.0,1018.2,305.2,1.1,2.4,346.4,0.00,15.1,20.0,"20:41:52",1
"20/10/07","21:00",0.0,17.2,87.4,1017.8,331.4,1.6,2.5,335.8,0.00,15.1,20.1,"20:57:44",1
"20/10/07","21:10",0.0,17.2,87.6,1017.3,317.3,1.0,2.0,321.2,0.00,15.2,20.0,"21:00:16",1
"20/10/07","21:20",0.0,17.2,87.8,1017.3,279.3,0.6,1.2,314.9,0.00,15.2,20.0,"21:10:32",1
"20/10/07","21:30",0.0,17.1,88.1,1017.5,269.2,0.6,1.2,312.4,0.00,15.2,19.9,"21:29:12",1
"20/10/07","21:40",0.0,17.0,88.4,1017.8,297.6,1.0,1.7,315.2,0.00,15.1,20.0,"21:30:02",1
"20/10/07","21:50",0.0,17.1,88.6,1018.2,282.0,1.0,2.8,338.1,0.00,15.2,19.9,"21:42:24",1
"20/10/07","22:00",0.2,17.1,88.7,1018.0,322.1,0.8,1.3,317.7,0.00,15.3,19.9,"21:53:28",1
"20/10/07","22:10",0.2,17.0,88.9,1018.0,302.3,1.0,1.8,328.9,0.00,15.2,20.0,"22:09:44",1
"20/10/07","22:20",0.2,17.0,89.1,1017.8,329.0,1.5,2.1,309.8,0.00,15.2,19.8,"22:10:48",1
"20/10/07","22:30",0.0,16.8,89.5,1017.8,327.8,1.3,2.4,349.4,0.00,15.1,19.9,"22:21:04",1
"20/10/07","22:40",0.2,16.7,89.8,1018.2,299.5,0.7,1.6,314.0,0.00,15.1,19.9,"22:39:14",1
"20/10/07","22:50",0.0,16.5,90.1,1017.5,302.3,1.0,1.9,259.8,0.00,14.9,19.8,"22:43:16",1
"20/10/07","23:00",0.0,16.4,90.3,1018.0,295.6,0.7,1.4,314.0,0.00,14.8,19.8,"22:50:24",1
"20/10/07","23:10",0.2,16.5,90.5,1017.8,357.7,0.1,0.9,323.0,0.00,15.0,19.6,"23:00:16",1
"20/10/07","23:20",0.0,16.6,90.8,1018.0,335.0,0.8,2.1,343.5,0.00,15.1,19.9,"23:18:00",1
"20/10/07","23:30",0.0,16.5,91.0,1018.2,319.5,1.3,2.0,331.2,0.00,15.1,19.7,"23:25:44",1
"20/10/07","23:40",0.4,16.4,91.2,1018.5,295.7,0.8,1.3,271.0,0.00,15.0,19.7,"23:30:40",1
"20/10/07","23:50",0.8,16.4,91.5,1019.0,266.2,0.8,1.4,309.4,0.00,15.1,19.4,"23:49:04",1
"20/10/07","24:00",0.4,16.4,91.8,1018.5,311.0,1.2,2.2,321.8,0.00,15.1,19.7,"23:59:20",1
